EWG3JM EDDM-EDDH

Flight info

Callsign EWG3JM
Flight time 1h 1m
Altitude 34000
Route INPUD3Q/08L INPUD Y102 UPALA M726 NARUS DCT ABGUS DCT DIRBO T902 RARUP RARUP3D
Aircraft A320/M-SDE3FGHIRWY/LB1

Departure

Time 2026-05-01 11:50
Airport Munich Airport (EDDM)

Arrival

Time 2026-05-01 12:51
Airport Hamburg Helmut Schmidt Airport (EDDH)
Time Latitude Longitude Altitude Speed Heading
2026-05-01 11:05 48.35352 11.79312 1467 ft 0 kts 263°
2026-05-01 11:37 48.35353 11.79328 1456 ft 2 kts 262°
2026-05-01 11:37 48.35355 11.79352 1462 ft 2 kts 263°
2026-05-01 11:37 48.35357 11.79377 1467 ft 2 kts 263°
2026-05-01 11:38 48.35359 11.79402 1458 ft 2 kts 264°
2026-05-01 11:38 48.35361 11.79426 1459 ft 2 kts 278°
2026-05-01 11:38 48.35356 11.79450 1456 ft 2 kts 306°
2026-05-01 11:38 48.35345 11.79468 1459 ft 2 kts 332°
2026-05-01 11:39 48.35335 11.79476 1460 ft 1 kts 351°
2026-05-01 11:39 48.35334 11.79476 1460 ft 0 kts 352°
2026-05-01 11:40 48.35338 11.79476 1459 ft 1 kts 357°
2026-05-01 11:41 48.35359 11.79489 1458 ft 7 kts 29°
2026-05-01 11:41 48.35401 11.79550 1467 ft 7 kts 46°
2026-05-01 11:41 48.35428 11.79587 1467 ft 4 kts 34°
2026-05-01 11:41 48.35455 11.79594 1467 ft 4 kts 353°
2026-05-01 11:42 48.35477 11.79590 1464 ft 3 kts 352°
2026-05-01 11:42 48.35497 11.79585 1463 ft 5 kts 353°
2026-05-01 11:42 48.35525 11.79580 1467 ft 3 kts 353°
2026-05-01 11:42 48.35560 11.79558 1459 ft 8 kts 327°
2026-05-01 11:43 48.35600 11.79503 1463 ft 7 kts 329°
2026-05-01 11:43 48.35645 11.79490 1465 ft 6 kts 353°
2026-05-01 11:43 48.35691 11.79482 1460 ft 8 kts 353°
2026-05-01 11:44 48.35848 11.79455 1459 ft 10 kts 352°
2026-05-01 11:44 48.35895 11.79398 1464 ft 8 kts 295°
2026-05-01 11:44 48.35931 11.79346 1464 ft 7 kts 345°
2026-05-01 11:44 48.35988 11.79336 1459 ft 10 kts 353°
2026-05-01 11:45 48.36065 11.79322 1467 ft 9 kts 343°
2026-05-01 11:45 48.36089 11.79259 1464 ft 7 kts 265°
2026-05-01 11:45 48.36081 11.79165 1465 ft 14 kts 262°
2026-05-01 11:45 48.36069 11.79005 1465 ft 16 kts 263°
2026-05-01 11:46 48.36055 11.78831 1467 ft 17 kts 263°
2026-05-01 11:46 48.36042 11.78659 1467 ft 16 kts 263°
2026-05-01 11:46 48.36030 11.78501 1467 ft 15 kts 262°
2026-05-01 11:46 48.36018 11.78357 1460 ft 13 kts 264°
2026-05-01 11:47 48.36007 11.78209 1467 ft 15 kts 263°
2026-05-01 11:47 48.35996 11.78063 1467 ft 13 kts 263°
2026-05-01 11:47 48.35985 11.77924 1463 ft 13 kts 263°
2026-05-01 11:47 48.35974 11.77789 1462 ft 13 kts 263°
2026-05-01 11:48 48.35976 11.77689 1467 ft 9 kts 297°
2026-05-01 11:48 48.36024 11.77664 1467 ft 7 kts 349°
2026-05-01 11:48 48.36084 11.77656 1467 ft 11 kts
2026-05-01 11:48 48.36160 11.77730 1466 ft 15 kts 54°
2026-05-01 11:49 48.36232 11.77881 1463 ft 20 kts 54°
2026-05-01 11:49 48.36318 11.78050 1462 ft 21 kts 50°
2026-05-01 11:49 48.36387 11.78237 1460 ft 20 kts 76°
2026-05-01 11:49 48.36415 11.78558 1463 ft 57 kts 83°
2026-05-01 11:50 48.36486 11.79486 1466 ft 121 kts 83°
2026-05-01 11:50 48.36599 11.80981 1639 ft 155 kts 83°
2026-05-01 11:50 48.36736 11.82621 2359 ft 158 kts 84°
2026-05-01 11:50 48.36863 11.84265 3100 ft 166 kts 84°
2026-05-01 11:51 48.37207 11.86027 3572 ft 192 kts 54°
2026-05-01 11:51 48.38405 11.87158 3972 ft 225 kts 17°
2026-05-01 11:51 48.40065 11.87357 4450 ft 254 kts
2026-05-01 11:51 48.41817 11.86567 5133 ft 279 kts 328°
2026-05-01 11:52 48.43160 11.84393 6011 ft 288 kts 306°
2026-05-01 11:52 48.44390 11.81965 7065 ft 291 kts 310°
2026-05-01 11:52 48.45681 11.79616 7984 ft 293 kts 313°
2026-05-01 11:52 48.47022 11.77272 8923 ft 296 kts 313°
2026-05-01 11:53 48.48381 11.74924 9859 ft 299 kts 314°
2026-05-01 11:53 48.49756 11.72545 10720 ft 302 kts 314°
2026-05-01 11:53 48.51141 11.70135 11565 ft 305 kts 314°
2026-05-01 11:53 48.52527 11.67705 12403 ft 307 kts 314°
2026-05-01 11:54 48.53925 11.65245 13246 ft 309 kts 314°
2026-05-01 11:54 48.55330 11.62764 14087 ft 312 kts 314°
2026-05-01 11:54 48.56860 11.60504 14780 ft 311 kts 326°
2026-05-01 11:54 48.58716 11.58774 15204 ft 322 kts 339°
2026-05-01 11:55 48.60867 11.57499 15358 ft 343 kts 342°
2026-05-01 11:55 48.63152 11.56201 15737 ft 356 kts 342°
2026-05-01 11:55 48.65486 11.54871 16330 ft 361 kts 342°
2026-05-01 11:55 48.67849 11.53514 16947 ft 365 kts 342°
2026-05-01 11:56 48.70240 11.52131 17595 ft 369 kts 342°
2026-05-01 11:56 48.72653 11.50733 18243 ft 373 kts 342°
2026-05-01 11:56 48.75094 11.49318 18856 ft 377 kts 342°
2026-05-01 11:56 48.77557 11.47886 19432 ft 380 kts 342°
2026-05-01 11:57 48.80039 11.46442 20033 ft 382 kts 342°
2026-05-01 11:57 48.82527 11.44995 20630 ft 385 kts 342°
2026-05-01 11:57 48.85038 11.43532 21220 ft 387 kts 342°
2026-05-01 11:57 48.87529 11.42077 21793 ft 389 kts 342°
2026-05-01 11:58 48.90101 11.40575 22406 ft 392 kts 342°
2026-05-01 11:58 48.92623 11.39104 22979 ft 394 kts 341°
2026-05-01 11:58 48.97774 11.36093 24066 ft 399 kts 341°
2026-05-01 11:59 49.00374 11.34563 24502 ft 402 kts 341°
2026-05-01 11:59 49.02988 11.33024 24952 ft 404 kts 341°
2026-05-01 11:59 49.05615 11.31484 25372 ft 406 kts 341°
2026-05-01 12:00 49.10922 11.28369 26166 ft 410 kts 341°
2026-05-01 12:00 49.13587 11.26795 26551 ft 413 kts 341°
2026-05-01 12:00 49.18970 11.23628 27337 ft 417 kts 343°
2026-05-01 12:01 49.21788 11.22527 27705 ft 417 kts 353°
2026-05-01 12:01 49.24678 11.22151 28107 ft 417 kts
2026-05-01 12:01 49.27587 11.22174 28457 ft 419 kts
2026-05-01 12:01 49.30511 11.22205 28815 ft 421 kts
2026-05-01 12:02 49.33446 11.22236 29158 ft 423 kts
2026-05-01 12:02 49.36404 11.22264 29481 ft 425 kts
2026-05-01 12:02 49.39372 11.22289 29824 ft 428 kts
2026-05-01 12:02 49.42357 11.22313 30138 ft 430 kts
2026-05-01 12:03 49.45355 11.22338 30437 ft 432 kts
2026-05-01 12:03 49.48366 11.22362 30699 ft 434 kts
2026-05-01 12:03 49.51388 11.22388 30948 ft 435 kts
2026-05-01 12:03 49.54424 11.22415 31189 ft 437 kts
2026-05-01 12:04 49.57471 11.22436 31436 ft 438 kts
2026-05-01 12:04 49.60527 11.22444 31675 ft 440 kts
2026-05-01 12:04 49.63584 11.22444 32015 ft 438 kts
2026-05-01 12:04 49.66589 11.22444 32355 ft 437 kts
2026-05-01 12:05 49.69629 11.22445 32687 ft 436 kts
2026-05-01 12:05 49.75687 11.22446 33363 ft 434 kts
2026-05-01 12:05 49.78706 11.22454 33709 ft 433 kts
2026-05-01 12:06 49.81706 11.22469 34039 ft 432 kts
2026-05-01 12:06 49.84720 11.22490 34337 ft 432 kts
2026-05-01 12:06 49.90674 11.22539 34398 ft 424 kts
2026-05-01 12:07 49.96562 11.22577 34392 ft 423 kts
2026-05-01 12:07 50.02458 11.22613 34397 ft 423 kts
2026-05-01 12:08 50.08352 11.22642 34400 ft 423 kts
2026-05-01 12:08 50.14243 11.22681 34399 ft 423 kts
2026-05-01 12:09 50.20136 11.22712 34398 ft 424 kts
2026-05-01 12:09 50.26034 11.22750 34394 ft 424 kts
2026-05-01 12:10 50.34847 11.22800 34388 ft 424 kts
2026-05-01 12:11 50.43685 11.21662 34392 ft 425 kts 355°
2026-05-01 12:11 50.49579 11.20762 34389 ft 426 kts 355°
2026-05-01 12:12 50.55481 11.19872 34391 ft 426 kts 355°
2026-05-01 12:12 50.61389 11.18985 34389 ft 426 kts 355°
2026-05-01 12:13 50.67267 11.18100 34393 ft 427 kts 355°
2026-05-01 12:13 50.73178 11.17392 34390 ft 427 kts 357°
2026-05-01 12:14 50.79116 11.16829 34395 ft 427 kts 357°
2026-05-01 12:14 50.85048 11.16249 34394 ft 427 kts 357°
2026-05-01 12:15 50.90986 11.15640 34394 ft 427 kts 357°
2026-05-01 12:15 50.96930 11.15013 34399 ft 428 kts 357°
2026-05-01 12:16 51.02845 11.14384 34397 ft 428 kts 357°
2026-05-01 12:16 51.08786 11.13751 34398 ft 428 kts 357°
2026-05-01 12:17 51.14745 11.13122 34401 ft 428 kts 357°
2026-05-01 12:17 51.20695 11.12493 34401 ft 429 kts 357°
2026-05-01 12:18 51.26655 11.11853 34401 ft 429 kts 357°
2026-05-01 12:18 51.32615 11.11220 34399 ft 429 kts 357°
2026-05-01 12:19 51.38582 11.10573 34399 ft 429 kts 357°
2026-05-01 12:19 51.44513 11.09931 34402 ft 430 kts 357°
2026-05-01 12:20 51.50487 11.09288 34404 ft 430 kts 357°
2026-05-01 12:20 51.56458 11.08638 34404 ft 430 kts 357°
2026-05-01 12:21 51.61422 11.08101 34406 ft 430 kts 357°
2026-05-01 12:21 51.67399 11.07458 34405 ft 430 kts 357°
2026-05-01 12:22 51.73374 11.06803 34404 ft 431 kts 357°
2026-05-01 12:22 51.79365 11.06149 34406 ft 431 kts 357°
2026-05-01 12:23 51.85362 11.05501 34402 ft 431 kts 357°
2026-05-01 12:23 51.91342 11.04594 34407 ft 432 kts 354°
2026-05-01 12:24 51.97297 11.03229 34402 ft 432 kts 352°
2026-05-01 12:24 52.03183 11.01836 34401 ft 432 kts 353°
2026-05-01 12:25 52.12175 10.99897 34395 ft 433 kts 353°
2026-05-01 12:26 52.18106 10.98644 34395 ft 433 kts 354°
2026-05-01 12:26 52.27069 10.96716 34397 ft 433 kts 353°
2026-05-01 12:27 52.30062 10.96066 34282 ft 434 kts 353°
2026-05-01 12:27 52.36058 10.94767 33741 ft 435 kts 353°
2026-05-01 12:28 52.42072 10.93454 33195 ft 436 kts 353°
2026-05-01 12:28 52.45075 10.92796 32930 ft 435 kts 353°
2026-05-01 12:28 52.51044 10.91489 32118 ft 429 kts 353°
2026-05-01 12:29 52.54000 10.90841 31552 ft 426 kts 353°
2026-05-01 12:29 52.56930 10.90204 30984 ft 423 kts 353°
2026-05-01 12:29 52.62676 10.88950 29924 ft 416 kts 353°
2026-05-01 12:30 52.68400 10.87690 28771 ft 409 kts 353°
2026-05-01 12:30 52.71166 10.86700 28231 ft 406 kts 340°
2026-05-01 12:30 52.73712 10.84854 27686 ft 404 kts 336°
2026-05-01 12:31 52.76253 10.82907 27148 ft 402 kts 336°
2026-05-01 12:31 52.78812 10.80922 26634 ft 400 kts 335°
2026-05-01 12:31 52.81285 10.78990 26128 ft 397 kts 335°
2026-05-01 12:31 52.83773 10.77041 25656 ft 395 kts 335°
2026-05-01 12:32 52.86283 10.75080 25178 ft 392 kts 335°
2026-05-01 12:32 52.91180 10.71264 24258 ft 388 kts 335°
2026-05-01 12:32 52.93613 10.69362 23777 ft 386 kts 335°
2026-05-01 12:33 52.96041 10.67461 23258 ft 383 kts 335°
2026-05-01 12:33 52.98442 10.65576 22768 ft 381 kts 335°
2026-05-01 12:33 53.00828 10.63700 22285 ft 378 kts 335°
2026-05-01 12:33 53.03201 10.61837 21814 ft 376 kts 335°
2026-05-01 12:34 53.05555 10.59988 21371 ft 373 kts 335°
2026-05-01 12:34 53.07894 10.58147 20897 ft 371 kts 335°
2026-05-01 12:34 53.10222 10.56315 20443 ft 369 kts 335°
2026-05-01 12:34 53.12531 10.54496 20007 ft 366 kts 335°
2026-05-01 12:35 53.14825 10.52683 19583 ft 365 kts 335°
2026-05-01 12:35 53.17114 10.50872 19159 ft 363 kts 335°
2026-05-01 12:35 53.19351 10.49102 18758 ft 361 kts 335°
2026-05-01 12:35 53.21614 10.47305 18308 ft 358 kts 335°
2026-05-01 12:36 53.23864 10.45519 17842 ft 357 kts 335°
2026-05-01 12:36 53.26114 10.43734 17389 ft 356 kts 335°
2026-05-01 12:36 53.28343 10.41961 16934 ft 355 kts 335°
2026-05-01 12:36 53.30569 10.40188 16505 ft 354 kts 335°
2026-05-01 12:37 53.32789 10.38416 16105 ft 353 kts 335°
2026-05-01 12:37 53.35004 10.36648 15689 ft 352 kts 335°
2026-05-01 12:37 53.37206 10.34889 15275 ft 351 kts 335°
2026-05-01 12:37 53.39410 10.33127 14860 ft 350 kts 335°
2026-05-01 12:38 53.41605 10.31371 14459 ft 349 kts 335°
2026-05-01 12:38 53.43796 10.29611 14071 ft 348 kts 335°
2026-05-01 12:38 53.45953 10.27875 13911 ft 338 kts 335°
2026-05-01 12:38 53.48048 10.26188 13776 ft 329 kts 335°
2026-05-01 12:39 53.49621 10.24928 13585 ft 325 kts 335°
2026-05-01 12:39 53.51647 10.23304 13282 ft 322 kts 334°
2026-05-01 12:39 53.53663 10.21682 12957 ft 320 kts 334°
2026-05-01 12:39 53.55661 10.20067 12609 ft 318 kts 334°
2026-05-01 12:40 53.57650 10.18458 12281 ft 317 kts 334°
2026-05-01 12:40 53.59635 10.16848 11941 ft 315 kts 334°
2026-05-01 12:40 53.61603 10.15252 11596 ft 313 kts 334°
2026-05-01 12:40 53.63565 10.13660 11277 ft 312 kts 334°
2026-05-01 12:41 53.65511 10.12079 10946 ft 310 kts 334°
2026-05-01 12:41 53.67455 10.10500 10603 ft 309 kts 334°
2026-05-01 12:41 53.69392 10.08928 10276 ft 307 kts 334°
2026-05-01 12:41 53.71313 10.07366 9908 ft 306 kts 334°
2026-05-01 12:42 53.73229 10.05806 9567 ft 304 kts 334°
2026-05-01 12:42 53.75130 10.04262 9250 ft 302 kts 334°
2026-05-01 12:42 53.77016 10.02736 8901 ft 300 kts 334°
2026-05-01 12:42 53.78869 10.01243 8545 ft 298 kts 334°
2026-05-01 12:43 53.80758 9.99722 8183 ft 296 kts 334°
2026-05-01 12:43 53.82588 9.98252 7931 ft 291 kts 334°
2026-05-01 12:43 53.84390 9.96806 7791 ft 280 kts 334°
2026-05-01 12:43 53.86122 9.95419 7675 ft 271 kts 334°
2026-05-01 12:44 53.87798 9.94075 7515 ft 262 kts 334°
2026-05-01 12:44 53.89423 9.92725 7239 ft 258 kts 327°
2026-05-01 12:44 53.91106 9.87811 6500 ft 248 kts 265°
2026-05-01 12:45 53.90015 9.82290 5451 ft 252 kts 231°
2026-05-01 12:45 53.88715 9.80478 5137 ft 235 kts 202°
2026-05-01 12:45 53.87180 9.79804 4743 ft 224 kts 181°
2026-05-01 12:46 53.85639 9.80090 4468 ft 224 kts 162°
2026-05-01 12:46 53.84217 9.81160 4177 ft 223 kts 153°
2026-05-01 12:46 53.82844 9.82375 3882 ft 221 kts 153°
2026-05-01 12:46 53.81474 9.83580 3579 ft 222 kts 153°
2026-05-01 12:47 53.80136 9.84749 3288 ft 215 kts 153°
2026-05-01 12:47 53.78804 9.85911 3008 ft 211 kts 153°
2026-05-01 12:47 53.77525 9.87025 2750 ft 205 kts 152°
2026-05-01 12:47 53.76265 9.88121 2442 ft 204 kts 152°
2026-05-01 12:48 53.75047 9.89182 2224 ft 193 kts 153°
2026-05-01 12:48 53.73902 9.90177 1951 ft 177 kts 153°
2026-05-01 12:48 53.72864 9.91078 1737 ft 157 kts 153°
2026-05-01 12:48 53.71926 9.91889 1520 ft 146 kts 153°
2026-05-01 12:49 53.71057 9.92655 1322 ft 136 kts 152°
2026-05-01 12:49 53.70239 9.93377 1139 ft 130 kts 152°
2026-05-01 12:49 53.69413 9.94080 978 ft 136 kts 154°
2026-05-01 12:49 53.68568 9.94808 836 ft 138 kts 152°
2026-05-01 12:50 53.67707 9.95544 650 ft 138 kts 152°
2026-05-01 12:50 53.66873 9.96276 426 ft 133 kts 151°
2026-05-01 12:50 53.66049 9.96996 252 ft 134 kts 152°
2026-05-01 12:50 53.65227 9.97705 83 ft 129 kts 151°
2026-05-01 12:51 53.64516 9.98321 52 ft 98 kts 154°
2026-05-01 12:51 53.64061 9.98714 49 ft 57 kts 152°
2026-05-01 12:51 53.63471 9.99223 49 ft 39 kts 152°
2026-05-01 12:52 53.63318 9.99409 51 ft 24 kts 123°
2026-05-01 12:52 53.63277 9.99651 50 ft 0 kts 98°
2026-05-01 12:53 53.63275 9.99675 50 ft 7 kts 100°
2026-05-01 12:53 53.63225 9.99760 50 ft 13 kts 145°
2026-05-01 12:53 53.63146 9.99829 50 ft 13 kts 153°
2026-05-01 12:54 53.63060 9.99903 50 ft 15 kts 153°
2026-05-01 12:54 53.62949 10.00070 51 ft 10 kts 76°
2026-05-01 12:54 53.62955 10.00116 48 ft 3 kts 83°
2026-05-01 12:55 53.62942 10.00205 51 ft 1 kts 110°
2026-05-01 12:55 53.62941 10.00214 51 ft 2 kts 110°
2026-05-01 12:55 53.62933 10.00247 49 ft 2 kts 109°
2026-05-01 12:56 53.62931 10.00257 51 ft 0 kts 109°